Fortaleza - Pinto Martins, Brazil

6:33 PM -03 on November 17, 2018 (GMT -0300)
Pinto Martins International

Weather History for SBFZ - November, 2018

Change the Weather History Date:

Friday, November 9, 2018

  Actual Average Record
Temperature  
Mean Temperature 84 °F -  
Max Temperature 89 °F 85 °F 89 °F (1996)
Min Temperature 78 °F 76 °F 75 °F (2001)
Cooling Degree Days 18    
Growing Degree Days 34 (Base 50)    
Moisture  
Dew Point 72 °F    
Average Humidity 69    
Maximum Humidity 79    
Minimum Humidity 49    
Precipitation  
Precipitation 0.00 in - - ()
Sea Level Pressure  
Sea Level Pressure 29.86 in    
Wind  
Wind Speed 13 mph ()    
Max Wind Speed 24 mph    
Max Gust Speed 34 mph    
Visibility 7.1 miles    
Events      
Averages and records for this station are not official NWS values.
T = Trace of Precipitation, MM = Missing Value Source: Averaged Metar Reports

Daily Weather History Graph

Daily Weather History Graph

Search for Another Location

Airport or City:

Astronomy

Nov. 09, 2018 Rise Set
Actual Time 5:09 AM -03 5:26 PM -03
Civil Twilight 4:48 AM -03 5:47 PM -03
Nautical Twilight 4:22 AM -03 6:13 PM -03
Astronomical Twilight 3:57 AM -03 6:38 PM -03
Moon 6:43 AM -03 (11/9) 7:17 PM -03 (11/9)
Length of Visible Light 12h 59m
Length of Day
12h 16m
Waxing Crescent, 4% of the Moon is Illuminated
Nov 9
Waxing Crescent
Nov 15
First Quarter
Nov 23
Full
Nov 29
Last Quarter
Dec 7
New

Hourly Weather History & Observations

Time (-03) Temp. Heat Index Dew Point Humidity Pressure Visibility Wind Dir Wind Speed Gust Speed Precip Events Conditions
12:00 AM 80.6 °F 85.4 °F 73.4 °F 79% 29.86 in 6.2 mi East 13.8 mph - N/A   Scattered Clouds
1:00 AM 80.6 °F 85.4 °F 73.4 °F 79% 29.86 in 6.2 mi East 13.8 mph - N/A   Scattered Clouds
2:00 AM 80.6 °F 84.6 °F 71.6 °F 74% 29.86 in 6.2 mi East 16.1 mph - N/A   Scattered Clouds
3:00 AM 81 °F - 71 °F 66% 29.86 in 12 mi ESE 15.0 mph - -   Partly Cloudy
3:00 AM 80.6 °F 84.6 °F 71.6 °F 74% 29.86 in 6.2 mi ESE 15.0 mph - N/A   Scattered Clouds
4:00 AM 78.8 °F - 71.6 °F 78% 29.86 in 6.2 mi ESE 11.5 mph - N/A   Scattered Clouds
5:00 AM 78.8 °F - 71.6 °F 78% 29.89 in 6.2 mi SE 6.9 mph - N/A   Scattered Clouds
6:00 AM 78.8 °F - 71.6 °F 78% 29.89 in 6.2 mi SE 8.1 mph - N/A   Mostly Cloudy
7:00 AM 80.6 °F 84.6 °F 71.6 °F 74% 29.92 in 6.2 mi SE 10.4 mph - N/A   Mostly Cloudy
8:00 AM 84.2 °F 89.6 °F 71.6 °F 66% 29.92 in 6.2 mi SE 15.0 mph - N/A   Mostly Cloudy
9:00 AM 87 °F - 72 °F 52% 29.94 in 12 mi ESE 16.1 mph - -   Mostly Cloudy
9:00 AM 87.8 °F 93.8 °F 71.6 °F 58% 29.92 in 6.2 mi ESE 16.1 mph - N/A   Mostly Cloudy
10:00 AM 87.8 °F 93.8 °F 71.6 °F 58% 29.92 in 6.2 mi East 20.7 mph 33.4 mph N/A   Scattered Clouds
11:00 AM 89.6 °F 96.2 °F 71.6 °F 55% 29.92 in 6.2 mi ESE 24.2 mph - N/A   Scattered Clouds
12:00 PM 89.6 °F 96.2 °F 71.6 °F 55% 29.89 in 6.2 mi East 23.0 mph 34.5 mph N/A   Scattered Clouds
1:00 PM 89.6 °F 94.7 °F 69.8 °F 52% 29.86 in 6.2 mi East 20.7 mph - N/A   Partly Cloudy
3:00 PM 87 °F - 71 °F 49% 29.81 in 12 mi East 18.4 mph - -   Scattered Clouds
3:00 PM 86.0 °F 90.4 °F 69.8 °F 58% 29.80 in 6.2 mi East 18.4 mph - N/A   Partly Cloudy
4:00 PM 84.2 °F 90.9 °F 73.4 °F 70% 29.77 in 6.2 mi ENE 16.1 mph - N/A   Partly Cloudy
5:00 PM 82.4 °F 88.2 °F 73.4 °F 74% 29.80 in 6.2 mi East 15.0 mph - N/A   Partly Cloudy
6:00 PM 82.4 °F 88.2 °F 73.4 °F 74% 29.80 in 6.2 mi East 10.4 mph - N/A   Partly Cloudy
7:00 PM 82.4 °F 89.5 °F 75.2 °F 79% 29.83 in 6.2 mi ENE 10.4 mph - N/A   Scattered Clouds
8:00 PM 80.6 °F 85.4 °F 73.4 °F 79% 29.83 in 6.2 mi East 10.4 mph - N/A   Partly Cloudy
9:00 PM 82 °F - 74 °F 71% 29.87 in 12 mi ENE 11.5 mph - -   Mostly Cloudy
9:00 PM 82.4 °F 88.2 °F 73.4 °F 74% 29.86 in 6.2 mi ENE 11.5 mph - N/A   Mostly Cloudy
10:00 PM 80.6 °F 85.4 °F 73.4 °F 79% 29.86 in 6.2 mi East 12.7 mph - N/A   Scattered Clouds
11:00 PM 80.6 °F 85.4 °F 73.4 °F 79% 29.86 in 6.2 mi East 15.0 mph - N/A   Scattered Clouds